Overview Statistics Trail Chart Weather Telemetry Raw packets
 

This is the latest recevied weather packets stored in our database for station/object K2CAT. If no packets are shown the sender has not sent any weather packets the latest 10 day(s).

<< 45 46 47 48 49 50 51 >>
Time Temp. Humidity Pressure Rain* Wind** Luminosity Snow
1777408926 18.89° C 41% 1017.5 hPa 0 mm - 73 W/m² -
1777408623 18.89° C 39% 1017.7 hPa 0 mm - 77 W/m² -
1777408321 18.89° C 39% 1017.8 hPa 0 mm - 79 W/m² -
1777408018 18.89° C 40% 1017.7 hPa 0 mm - 80 W/m² -
1777407715 18.89° C 39% 1017.8 hPa 0 mm - 76 W/m² -
1777407410 18.89° C 41% 1017.7 hPa 0 mm - 76 W/m² -
1777407106 18.89° C 43% 1017.7 hPa 0 mm - 82 W/m² -
1777406805 18.89° C 40% 1017.9 hPa 0 mm - 91 W/m² -
1777406496 18.89° C 39% 1017.9 hPa 0 mm - 99 W/m² -
1777406192 19.44° C 39% 1018.2 hPa 0 mm - 96 W/m² -
1777405886 19.44° C 41% 1018.2 hPa 0 mm - 87 W/m² -
1777405582 19.44° C 40% 1018.4 hPa 0 mm - 83 W/m² -
1777405280 19.44° C 40% 1018.2 hPa 0 mm - 86 W/m² -
1777404979 19.44° C 38% 1018.2 hPa 0 mm - 91 W/m² -
1777404674 19.44° C 41% 1018.5 hPa 0 mm - 104 W/m² -
1777404371 20° C 38% 1018.5 hPa 0 mm - 114 W/m² -
1777404068 19.44° C 43% 1018.5 hPa 0 mm - 120 W/m² -
1777403763 20° C 41% 1018.6 hPa 0 mm - 129 W/m² -
1777403461 20° C 41% 1018.8 hPa 0 mm - 136 W/m² -
1777403156 20° C 41% 1018.8 hPa 0 mm - 146 W/m² -
1777402851 20° C 40% 1018.8 hPa 0 mm - 151 W/m² -
1777402554 20° C 41% 1019.1 hPa 0 mm - 169 W/m² -
1777402246 20° C 41% 1018.9 hPa 0 mm - 203 W/m² -
1777401941 20.56° C 38% 1018.9 hPa 0 mm - 222 W/m² -
1777401639 20.56° C 40% 1019.1 hPa 0 mm - 203 W/m² -

* Rain latest hour (hover to see other rain measurements)
** Current wind speed in m/s (hover to see current wind gust speed)